#timestamp,LO_Frequency,Hit,StdDev 
1626570015.5,286046999.1,N
1626570035.3,286046999.1,N
1626570055.2,286046999.2,N
1626570075.9,286046999.1,N
1626570095.7,286046997.0,Y
1626570115.6,286046999.1,P
1626570135.4,286046999.1,N
1626570155.2,286046999.3,N
1626570175.1,286046998.9,Y
1626570176.0,286046998.9,P
1626570195.8,286046998.6,P
1626570215.7,286047000.6,N
1626570235.5,286047000.9,N
1626570255.4,286047000.6,N
1626570275.2,286046999.9,N
1626570295.0,286047000.0,N
1626570295.9,286047000.0,N
1626570315.8,286047000.3,N
1626570335.6,286047000.8,N
1626570355.4,286047001.1,N
1626570375.3,286046998.2,N
1626570395.1,286046998.2,N
1626570415.9,286046998.2,N
1626570435.7,286047000.7,N
1626570455.5,286046998.6,N
1626570475.4,286047001.1,N
1626570495.2,286046998.5,N
1626570515.0,286047000.9,N
1626570515.9,286047000.9,N
1626570535.8,286046998.2,N
1626570555.6,286046998.1,N
1626570575.4,286047001.0,N
1626570595.3,286047001.2,N
1626570615.1,286047000.0,N
1626570635.9,286047000.2,N
1626570655.7,286047001.1,N
1626570675.5,286047000.4,N
1626570695.4,286047000.5,N
1626570715.2,286047000.6,N
1626570735.1,286047000.4,N
1626570736.0,286047000.4,N
1626570755.8,286047000.0,N
1626570775.6,286047002.0,N
1626570795.5,286047000.0,N
1626570815.3,286047000.3,N
1626570835.2,286046999.9,N
1626570855.9,286047000.0,N
1626570875.7,286047000.5,N
1626570895.6,286047000.0,N
1626570915.4,286047000.0,N
1626570935.2,286047000.9,N
1626570955.1,286047000.6,N
1626570956.0,286047000.6,N
1626570975.8,286047002.7,Y
1626570995.7,286046998.5,P
1626571015.5,286047001.1,N
1626571035.3,286047000.6,N
1626571055.2,286047001.0,N
1626571075.0,286047000.9,N
1626571075.9,286047000.9,N
1626571095.8,286046998.5,N
1626571115.6,286047001.0,N
1626571135.4,286047000.7,N
1626571155.3,286046998.5,N
1626571175.1,286046998.5,N
1626571195.8,286047000.7,N
1626571215.7,286047000.7,N
1626571235.3,286046998.3,N
1626571255.1,286047000.9,N
1626571275.9,286047000.1,N
1626571295.7,286047000.1,N
1626571315.6,286047002.4,N
1626571335.4,286047002.2,N
1626571355.2,286047002.8,N
1626571375.1,286047002.3,N
1626571376.0,286047002.3,N
1626571395.8,286047002.8,N
1626571415.7,286047002.8,N
1626571435.5,286047000.2,N
1626571455.3,286047002.7,N
1626571475.2,286047001.4,N
1626571495.0,286047000.2,N
1626571495.9,286047000.2,N
1626571515.7,286047002.7,N
1626571535.6,286046998.5,N
1626571555.4,286046998.8,N
1626571575.3,286046998.4,N
1626571595.1,286046998.8,N
1626571596.0,286046998.8,N
1626571615.8,286046999.3,N
1626571635.7,286046998.7,N
1626571655.5,286046998.4,N
1626571675.3,286046998.1,N
1626571695.2,286046998.4,N
1626571715.0,286046998.1,N
1626571715.9,286046998.1,N
1626571735.8,286047001.1,N
1626571755.6,286047000.3,N
1626571775.4,286047000.4,N
1626571795.3,286046999.7,N
1626571815.1,286046998.1,N
1626571835.8,286046998.2,N
1626571855.7,286046998.4,N
1626571875.5,286046999.4,N
1626571895.4,286047000.6,N
1626571915.2,286046999.4,N
1626571935.0,286046999.3,N
1626571935.9,286046999.3,N
1626571955.8,286046996.5,N
1626571975.6,286046996.7,N
1626571995.4,286046999.6,N
1626572015.3,286046998.9,N
1626572035.1,286046998.3,N
1626572055.9,286046998.6,N
1626572075.7,286046999.1,N
1626572095.5,286046996.5,Y
1626572115.4,286046998.3,P
1626572135.2,286046998.3,P
1626572155.0,286046998.5,P
1626572155.9,286046998.5,Y
1626572175.8,286047002.6,P
1626572195.6,286047001.0,N
1626572215.5,286046998.2,N
1626572235.3,286046996.5,N
1626572255.1,286046997.3,N
1626572275.9,286046999.1,N
1626572295.7,286046998.7,N
1626572315.5,286046999.4,N
1626572335.4,286046998.9,N
1626572355.2,286046996.6,N
1626572375.1,286046999.1,N
1626572376.0,286046999.1,N
1626572395.8,286046996.5,N
1626572415.6,286046996.9,N
1626572435.5,286046996.5,N
1626572455.3,286046998.4,N
1626572475.2,286046998.5,N
1626572495.9,286046999.5,N
1626572515.7,286046999.1,N
1626572535.6,286046996.6,N
1626572555.4,286046998.5,N
1626572575.2,286047000.8,N
1626572595.1,286047000.1,N
1626572596.0,286047000.1,N
1626572615.8,286046999.9,N
1626572635.7,286046998.2,N
1626572655.5,286046998.5,N
1626572675.3,286046998.7,N
1626572695.2,286046998.6,N
1626572715.0,286046998.5,N
1626572715.9,286046998.5,N
1626572735.8,286046999.4,N
1626572755.6,286046999.3,N
1626572775.4,286046999.0,N
1626572795.3,286046998.3,N
1626572815.1,286047000.6,N
1626572835.8,286047000.5,N
1626572855.7,286047001.0,N
1626572875.5,286046998.9,N
1626572895.4,286046998.1,N
1626572915.2,286046998.2,N
1626572935.0,286047000.2,N
1626572935.9,286047000.2,N
1626572955.8,286047002.8,N
1626572975.6,286047002.6,N
1626572995.5,286047002.6,N
1626573015.3,286047002.2,N
1626573035.1,286047001.8,N
1626573055.9,286047001.4,N
1626573075.7,286047003.9,N
1626573095.5,286047003.8,N
1626573115.4,286047006.0,Y
1626573135.2,286047003.2,P
1626573155.1,286047005.7,P
1626573156.0,286047005.7,N
1626573175.8,286047002.9,N
1626573195.6,286047005.5,N
1626573215.5,286047005.8,N
1626573235.3,286047005.6,N
1626573255.2,286047005.7,N
1626573275.9,286047002.9,N
1626573295.7,286047003.6,N
1626573315.6,286047005.9,Y
1626573335.4,286046998.2,P
1626573355.3,286047000.7,N
1626573375.1,286047000.7,N
1626573376.0,286047000.7,N
1626573395.8,286047000.8,N
1626573415.7,286047000.1,N
1626573435.5,286047000.8,N
1626573455.3,286047000.5,N
1626573475.2,286047000.9,N
1626573495.0,286047001.2,N
1626573495.9,286047001.2,N
1626573515.8,286047000.6,N
1626573535.6,286047000.7,N
1626573555.4,286046998.3,N
1626573575.3,286046998.6,N
1626573595.1,286046999.0,N
1626573596.0,286046999.0,N
